Weather History for Corning, AR

Change the Weather History Date:

Thursday, January 10, 2013

  Actual Average (KARG) Record (KARG)
Temperature  
Mean Temperature 54 °F -  
Max Temperature 64 °F 42 °F 64 °F (2013)
Min Temperature 44 °F 28 °F 6 °F (1997)
Degree Days  
Heating Degree Days 11    
Growing Degree Days 4 (Base 50)    
Moisture  
Dew Point 54 °F    
Average Humidity 97    
Maximum Humidity 100    
Minimum Humidity 71    
Precipitation  
Precipitation 0.36 in - - ()
Sea Level Pressure  
Sea Level Pressure 30.04 in    
Wind  
Wind Speed 15 mph (ESE)    
Max Wind Speed 24 mph    
Max Gust Speed 37 mph    
Visibility 5 miles    
Events Rain    
Averages and records for this station are not official NWS values.
T = Trace of Precipitation, MM = Missing Value Source: NWS Daily Summary

Daily Weather History Graph

Daily Weather History Graph

Search for Another Location

Airport:

Trip Planner

Search our weather history database for the weather conditions in past years. The results will help you decide how hot, cold, wet, or windy it might be!

Date:

Astronomy

Jan. 10, 2013 Rise Set
Actual Time 7:14 AM CST 5:06 PM CST
Civil Twilight 6:46 AM CST 5:34 PM CST
Nautical Twilight 6:14 AM CST 6:06 PM CST
Astronomical Twilight 5:43 AM CST 6:37 PM CST
Moon 5:54 AM CST (1/10) 4:13 PM CST (1/10)
Length of Visible Light 10h 48m
Length of Day
9h 51m
Waning Crescent, 2% of the Moon is Illuminated
Jan 10
Waning Crescent
Jan 11
New
Jan 18
First Quarter
Jan 26
Full
Feb 3
Last Quarter

Hourly Weather History & Observations

Time (CST) Temp. Windchill Dew Point Humidity Pressure Visibility Wind Dir Wind Speed Gust Speed Precip Events Conditions
12:15 AM 48.2 °F - 39.2 °F 71% 30.35 in 10.0 mi NE 21.9 mph 25.3 mph N/A Rain Light Rain
2:15 AM 46.4 °F 39.8 °F 42.8 °F 87% 30.32 in 4.0 mi ENE 16.1 mph 25.3 mph 0.02 in Rain Light Rain
2:35 AM 46.4 °F 39.0 °F 42.8 °F 87% 30.30 in 5.0 mi ENE 19.6 mph 24.2 mph 0.05 in Rain Light Rain
2:55 AM 44.6 °F 37.2 °F 42.8 °F 93% 30.29 in 5.0 mi ENE 17.3 mph 23.0 mph 0.07 in Rain Light Rain
3:15 AM 44.6 °F 36.6 °F 42.8 °F 93% 30.26 in 5.0 mi ENE 19.6 mph 25.3 mph 0.01 in Rain Light Rain
3:55 AM 44.6 °F 37.8 °F 44.6 °F 100% 30.24 in 4.0 mi NE 15.0 mph 26.5 mph 0.06 in Rain Light Rain
4:15 AM 44.6 °F 37.8 °F 44.6 °F 100% 30.24 in 3.0 mi NE 15.0 mph - 0.02 in Rain Rain
4:35 AM 46.4 °F 39.5 °F 44.6 °F 93% 30.21 in 4.0 mi NE 17.3 mph 25.3 mph 0.06 in Rain Light Rain
4:55 AM 46.4 °F 41.5 °F 44.6 °F 93% 30.22 in 2.5 mi NE 10.4 mph - 0.14 in Rain Heavy Rain
5:15 AM 46.4 °F 40.4 °F 44.6 °F 93% 30.21 in 4.0 mi NE 13.8 mph - N/A Rain Light Rain
5:55 AM 46.4 °F 42.4 °F 46.4 °F 100% 30.21 in 4.0 mi NE 8.1 mph - N/A   Overcast
6:15 AM 46.4 °F 41.9 °F 46.4 °F 100% 30.22 in 4.0 mi NE 9.2 mph - N/A   Overcast
6:35 AM 46.4 °F 42.4 °F 46.4 °F 100% 30.22 in 3.0 mi NE 8.1 mph - N/A   Overcast
6:55 AM 46.4 °F 41.1 °F 46.4 °F 100% 30.20 in 1.5 mi NE 11.5 mph - N/A Rain Light Rain
7:15 AM 46.4 °F 40.4 °F 46.4 °F 100% 30.19 in 3.0 mi NE 13.8 mph - N/A   Mostly Cloudy
7:35 AM 46.4 °F 41.5 °F 46.4 °F 100% 30.20 in 3.0 mi ENE 10.4 mph - N/A   Overcast
7:55 AM 46.4 °F 41.1 °F 46.4 °F 100% 30.20 in 3.0 mi NE 11.5 mph - N/A   Overcast
8:15 AM 46.4 °F 41.9 °F 46.4 °F 100% 30.20 in 2.5 mi NE 9.2 mph - N/A   Overcast
8:35 AM 48.2 °F - 48.2 °F 100% 30.21 in 1.8 mi NE 8.1 mph - N/A   Overcast
8:55 AM 48.2 °F - 48.2 °F 100% 30.20 in 0.8 mi NE 6.9 mph - N/A   Overcast
9:15 AM 48.2 °F - 48.2 °F 100% 30.19 in 0.8 mi NE 9.2 mph - N/A   Overcast
9:35 AM 48.2 °F - 48.2 °F 100% 30.18 in 0.8 mi NE 9.2 mph - N/A   Overcast
9:55 AM 48.2 °F - 48.2 °F 100% 30.18 in 1.0 mi NE 9.2 mph - N/A Rain Light Rain
10:15 AM 50.0 °F - 50.0 °F 100% 30.16 in 1.0 mi ENE 11.5 mph - 0.01 in Rain Light Rain
10:35 AM 50.0 °F - 50.0 °F 100% 30.14 in 1.2 mi ENE 12.7 mph - 0.02 in Rain Light Rain
10:55 AM 50.0 °F - 50.0 °F 100% 30.13 in 2.0 mi East 11.5 mph - 0.02 in   Overcast
11:35 AM 51.8 °F - 51.8 °F 100% 30.09 in 1.5 mi ENE 11.5 mph - N/A Rain Light Rain
11:55 AM 51.8 °F - 51.8 °F 100% 30.08 in 1.5 mi East 10.4 mph - 0.02 in Rain Light Rain
12:15 PM 53.6 °F - 53.6 °F 100% 30.07 in 1.5 mi East 9.2 mph - N/A Rain Light Rain
12:35 PM 53.6 °F - 53.6 °F 100% 30.04 in 1.0 mi East 11.5 mph - N/A Rain Light Rain
12:55 PM 55.4 °F - 55.4 °F 100% 30.01 in 1.0 mi East 12.7 mph - N/A Rain Light Rain
1:15 PM 55.4 °F - 55.4 °F 100% 29.98 in 1.2 mi East 13.8 mph - N/A Rain Light Rain
1:35 PM 57.2 °F - 57.2 °F 100% 29.96 in 2.0 mi East 13.8 mph 19.6 mph N/A Rain Light Rain
1:55 PM 59.0 °F - 59.0 °F 100% 29.96 in 4.0 mi East 12.7 mph - N/A   Mostly Cloudy
2:15 PM 59.0 °F - 59.0 °F 100% 29.94 in 10.0 mi ESE 13.8 mph - N/A Rain Light Rain
2:35 PM 60.8 °F - 60.8 °F 100% 29.95 in 10.0 mi SE 13.8 mph 20.7 mph N/A   Overcast
2:55 PM 62.6 °F - 62.6 °F 100% 29.94 in 10.0 mi SSE 17.3 mph 25.3 mph N/A   Overcast
3:15 PM 64.4 °F - 64.4 °F 100% 29.92 in 10.0 mi SSE 13.8 mph 24.2 mph N/A   Overcast
3:35 PM 64.4 °F - 62.6 °F 94% 29.92 in 10.0 mi SSE 13.8 mph 23.0 mph N/A   Overcast
3:55 PM 64.4 °F - 62.6 °F 94% 29.92 in 10.0 mi SSE 13.8 mph 20.7 mph N/A   Overcast
4:15 PM 64.4 °F - 62.6 °F 94% 29.90 in 10.0 mi SSE 13.8 mph - N/A   Mostly Cloudy
4:35 PM 64.4 °F - 62.6 °F 94% 29.91 in 10.0 mi SSE 12.7 mph 20.7 mph N/A   Scattered Clouds
4:55 PM 62.6 °F - 62.6 °F 100% 29.90 in 10.0 mi SSE 10.4 mph - N/A   Overcast
5:15 PM 64.4 °F - 62.6 °F 94% 29.89 in 10.0 mi SSE 9.2 mph - N/A   Overcast
5:35 PM 64.4 °F - 60.8 °F 88% 29.90 in 10.0 mi South 9.2 mph - N/A   Overcast
5:55 PM 62.6 °F - 60.8 °F 94% 29.89 in 10.0 mi SSE 9.2 mph - N/A   Overcast
6:15 PM 62.6 °F - 60.8 °F 94% 29.89 in 10.0 mi SSE 6.9 mph - N/A   Overcast
6:35 PM 60.8 °F - 60.8 °F 100% 29.89 in 10.0 mi SE 6.9 mph - N/A   Overcast
6:55 PM 62.6 °F - 62.6 °F 100% 29.89 in 2.5 mi SE 11.5 mph - 0.01 in Rain Light Rain
7:15 PM 62.6 °F - 62.6 °F 100% 29.89 in 1.5 mi SSE 10.4 mph - 0.03 in Rain Light Rain
7:35 PM 62.6 °F - 62.6 °F 100% 29.88 in 3.0 mi SSE 9.2 mph - 0.03 in Rain Light Rain
7:55 PM 62.6 °F - 62.6 °F 100% 29.88 in 1.5 mi South 17.3 mph 20.7 mph 0.04 in Rain Light Rain
8:15 PM 62.6 °F - 62.6 °F 100% 29.87 in 3.0 mi South 16.1 mph - N/A Rain Light Rain
8:35 PM 62.6 °F - 62.6 °F 100% 29.88 in 1.0 mi South 17.3 mph 23.0 mph N/A Rain Light Rain
8:55 PM 62.6 °F - 62.6 °F 100% 29.89 in 2.5 mi SSW 23.0 mph 36.8 mph N/A Rain Light Rain
9:15 PM 62.6 °F - 60.8 °F 94% 29.88 in 10.0 mi SW 24.2 mph 33.4 mph N/A   Overcast
9:35 PM 62.6 °F - 60.8 °F 94% 29.89 in 10.0 mi SW 23.0 mph 29.9 mph N/A   Overcast
9:55 PM 60.8 °F - 59.0 °F 94% 29.88 in 10.0 mi SW 21.9 mph 33.4 mph N/A   Scattered Clouds
10:15 PM 60.8 °F - 57.2 °F 88% 29.88 in 10.0 mi SW 19.6 mph 27.6 mph N/A   Partly Cloudy
10:35 PM 60.8 °F - 57.2 °F 88% 29.88 in 10.0 mi SW 19.6 mph 24.2 mph N/A   Mostly Cloudy
10:55 PM 59.0 °F - 57.2 °F 94% 29.88 in 10.0 mi SSW 19.6 mph 24.2 mph N/A   Partly Cloudy
11:15 PM 59.0 °F - 57.2 °F 94% 29.89 in 10.0 mi SSW 16.1 mph 24.2 mph N/A   Mostly Cloudy
11:35 PM 59.0 °F - 59.0 °F 100% 29.88 in 10.0 mi SSW 16.1 mph - N/A   Mostly Cloudy
11:55 PM 59.0 °F - 57.2 °F 94% 29.88 in 10.0 mi SSW 18.4 mph 21.9 mph N/A   Mostly Cloudy